Location: Bédeille
(43.0872°N, 1.1041°E)
Time: 21:37:17
(UTC+00:00)

IRIDIUM 103 - Pass Details

Date: 03 February 2023
Orbit: 776 x 779 km, 86.4° (Epoch: 22 March)

Event Time Altitude Azimuth Distance (km) Brightness Sun altitude
Rises 18:46:06 0° 357° (N) 3,273 7.5 -17.8°
Reaches altitude 10° 18:48:28 10° 358° (N) 2,340 6.8 -18.2°
Maximum altitude 18:53:43 87° 88° (E) 786 4.2 -19.1°
Drops below altitude 10° 18:58:56 10° 177° (S) 2,321 6.8 -20.1°
Sets 19:01:15 0° 178° (S) 3,244 7.6 -20.5°
